FW3668 Weather Reports


time (UTC)temp
C
wind
direction
speed
KPH
gust
KPH
rain 1hr
cm
rain 24hr
cm
rain mn
cm
humidity
%
barometer
mb
20260508001526 8 228 0.0 4.8 0.00 3.56 3.56 98 1002.7
20260508000018 8 244 3.2 12.9 0.00 3.56 3.56 98 1002.6
20260507234611 9 241 0.0 4.8 0.00 3.56 3.56 98 1002.8
20260507233010 10 241 1.6 6.4 0.00 3.56 3.56 97 1002.9
20260507231510 10 231 1.6 11.3 0.00 3.56 3.56 98 1002.7
20260507230008 11 207 4.8 8.0 0.00 3.56 3.56 98 1002.9
20260507224510 11 234 1.6 6.4 0.00 3.56 3.56 98 1002.8
20260507223008 11 252 3.2 16.1 0.00 3.56 3.56 98 1002.9
20260507221507 10 238 1.6 8.0 0.00 3.56 3.56 97 1002.9
20260507220006 11 225 3.2 11.3 0.03 3.56 3.56 97 1003.3
20260507214505 11 219 3.2 11.3 0.03 3.56 3.56 97 1003.2
20260507213014 10 290 3.2 12.9 0.08 3.56 3.56 97 1003.2
20260507211504 10 265 9.7 22.5 0.20 3.56 3.56 97 1002.9
20260507210007 10 145 12.9 25.7 0.36 3.53 3.53 97 1001.8
20260507204611 10 135 14.5 27.4 0.58 3.53 3.53 97 1002.5
20260507203102 10 126 8.0 25.7 0.86 3.48 3.48 96 1003.4
20260507201555 10 137 11.3 25.7 1.17 3.35 3.35 97 1003.7
20260507200104 10 200 17.7 30.6 1.37 3.20 3.20 96 1004.0
20260507194549 10 131 14.5 29.0 1.40 2.97 2.97 97 1004.4
20260507193108 10 207 12.9 27.4 1.32 2.62 2.62 98 1005.3
20260507191554 10 218 9.7 19.3 1.32 2.18 2.18 97 1005.8
20260507190043 10 225 4.8 22.5 1.09 1.83 1.83 96 1005.5
20260507184541 11 271 8.0 24.1 0.86 1.55 1.55 97 1005.6
20260507183049 12 211 11.3 29.0 0.61 1.30 1.30 96 1005.8
20260507181539 12 193 17.7 32.2 0.15 0.84 0.84 95 1005.8
20260507180039 12 175 14.5 40.2 0.05 0.71 0.71 94 1004.9
20260507174538 13 136 17.7 35.4 0.00 0.71 0.71 92 1004.9
20260507173040 13 225 17.7 35.4 0.00 0.71 0.71 92 1004.9
20260507171534 13 166 14.5 30.6 0.00 0.71 0.71 93 1005.6
20260507170036 13 158 12.9 33.8 0.00 0.71 0.71 94 1005.9
20260507164531 13 208 12.9 32.2 0.00 0.71 0.71 94 1006.3
20260507163036 13 175 16.1 30.6 0.00 0.71 0.71 93 1006.6
20260507161527 12 163 16.1 33.8 0.00 0.71 0.71 94 1007.2
20260507160034 12 154 17.7 37.0 0.00 0.71 0.71 94 1007.9
20260507154522 12 182 24.1 41.8 0.00 0.71 0.71 94 1008.4
20260507153022 12 154 19.3 40.2 0.00 0.71 0.71 93 1008.4
20260507151521 13 199 17.7 35.4 0.00 0.71 0.71 94 1008.9
20260507150019 13 207 16.1 35.4 0.00 0.71 0.71 93 1009.0
20260507144525 13 190 17.7 40.2 0.00 0.71 0.71 93 1009.1
20260507143013 13 202 16.1 33.8 0.00 0.71 0.71 94 1009.3
20260507141511 12 229 16.1 38.6 0.00 0.71 0.71 94 1009.9
20260507140010 12 119 22.5 40.2 0.00 0.71 0.71 94 1010.2
20260507134508 12 192 11.3 32.2 0.00 0.71 0.71 94 1010.7
20260507133011 13 188 12.9 37.0 0.00 0.71 0.71 94 1010.5
20260507131506 13 219 16.1 30.6 0.03 0.71 0.71 94 1010.3
20260507130015 13 205 11.3 35.4 0.03 0.71 0.71 95 1010.6
20260507124504 13 267 12.9 32.2 0.05 0.71 0.71 96 1010.3
20260507123100 12 169 9.7 19.3 0.05 0.71 0.71 96 1010.6
20260507121557 12 161 12.9 25.7 0.05 0.69 0.69 96 1010.7
20260507120053 12 202 14.5 30.6 0.05 0.69 0.69 96 1011.7
20260507114557 12 169 16.1 38.6 0.15 0.64 0.64 96 1011.7
20260507113051 12 188 17.7 37.0 0.33 0.61 0.61 97 1012.2
20260507111558 11 164 14.5 43.5 0.33 0.61 0.61 97 1012.4
20260507110049 11 180 14.5 37.0 0.36 0.61 0.61 97 1012.3
20260507104547 11 153 12.9 27.4 0.33 0.51 0.51 96 1012.6
20260507103045 11 226 16.1 30.6 0.13 0.30 0.30 96 1012.6
20260507101558 11 153 12.9 27.4 0.15 0.30 0.30 96 1013.0
20260507100043 12 207 9.7 22.5 0.13 0.25 0.25 96 1012.6
20260507094544 12 173 11.3 30.6 0.05 0.18 0.18 97 1012.6
20260507093045 12 155 9.7 25.7 0.08 0.18 0.18 97 1012.8
20260507091539 12 185 14.5 27.4 0.08 0.15 0.15 98 1012.9
20260507090038 11 180 14.5 27.4 0.05 0.15 0.15 97 1013.0
20260507084540 11 198 11.3 35.4 0.05 0.13 0.13 98 1013.2
20260507083036 10 171 4.8 12.9 0.08 0.10 0.10 99 1013.1
20260507081536 11 246 6.4 19.3 0.08 0.08 0.08 97 1013.4
20260507080030 10 215 8.0 19.3 0.08 0.08 0.08 98 1013.6
20260507074526 10 244 1.6 11.3 0.05 0.05 0.05 97 1013.5
20260507073023 10 170 8.0 29.0 0.03 0.03 0.03 98 1014.2
20260507071525 11 220 9.7 27.4 0.00 0.00 0.00 97 1014.1
20260507070017 11 188 12.9 29.0 0.00 0.00 0.00 97 1014.4
20260507064516 11 151 9.7 20.9 0.00 0.00 0.00 98 1014.4
20260507063010 11 108 8.0 16.1 0.00 0.00 0.00 98 1014.5
20260507061509 11 173 11.3 22.5 0.00 0.00 0.00 98 1014.8
20260507060011 11 209 9.7 22.5 0.00 0.00 0.00 98 1015.1
20260507054504 11 185 6.4 19.3 0.00 0.00 0.00 98 1015.3
20260507053001 11 137 6.4 16.1 0.00 0.00 0.00 98 1015.6
20260507051559 11 217 8.0 16.1 0.00 0.00 0.00 98 1015.8
20260507050100 11 213 4.8 12.9 0.00 0.00 0.00 97 1016.2
20260507044555 11 211 3.2 9.7 0.00 0.00 0.00 97 1016.4
20260507043100 11 199 1.6 11.3 0.00 0.00 0.00 97 1016.6
20260507041602 11 201 1.6 11.3 0.00 0.00 0.00 97 1017.0
20260507040055 11 251 1.6 12.9 0.00 0.00 0.00 97 1017.2
20260507034550 11 265 4.8 16.1 0.00 0.00 0.00 97 1017.3
20260507033046 11 183 6.4 16.1 0.00 0.00 0.00 97 1017.6
20260507031542 11 165 4.8 20.9 0.00 0.00 0.00 97 1018.0
20260507030040 11 250 4.8 14.5 0.00 0.00 0.00 96 1018.1
20260507024538 11 234 4.8 30.6 0.00 0.00 0.00 96 1018.2
20260507023037 11 178 12.9 25.7 0.00 0.00 0.00 95 1018.2
20260507021536 11 167 11.3 30.6 0.00 0.00 0.00 95 1018.2
20260507020036 11 180 16.1 30.6 0.00 0.00 0.00 94 1018.3
20260507014549 12 152 14.5 25.7 0.00 0.00 0.00 93 1018.5
20260507013043 12 217 16.1 35.4 0.00 0.00 0.00 94 1018.5
20260507011539 12 213 11.3 25.7 0.00 0.00 0.00 94 1018.8
20260507010034 11 179 9.7 17.7 0.00 0.00 0.00 96 1019.1
20260507004531 9 207 0.0 1.6 0.00 0.00 0.00 93 1019.2
20260507003030 10 207 0.0 4.8 0.00 0.00 0.00 93 1019.3